Regional Weather Roundup
Issued by NWS

Home | Current Version | Previous Version | Text Only | Print | Product List | Glossary Off
Versions: 1 2 3 4 5 6 7 8 9 10 11 12 13 14 15 16 17 18 19 20 21 22 23 24 25 26 27 28 29 30 31 32 33 34 35 36 37 38 39 40 41 42 43 44 45

000
ASUS45 KBOU 200107
RWRCO

WEATHER ROUNDUP FOR COLORADO
NATIONAL WEATHER SERVICE DENVER/BOULDER CO
700 PM MDT FRI SEP 19 2014

NOTE: "FAIR" INDICATES FEW OR NO CLOUDS BELOW 12000 FEET WITH NO
SIGNIFICANT WEATHER AND/OR OBSTRUCTIONS TO VISIBILITY.

COZ001>005-013-030-031-200200-
...NORTHWEST COLORADO...

CITY           SKY/WX    TMP DP  RH WIND       PRES   REMARKS
CRAIG          MOCLDY    72  48  42 W3        30.10R
HAYDEN         MOCLDY    72  43  35 NW6       30.13R
MEEKER         MOCLDY    74  42  31 NW7       30.11
MOUNT WERNER   NOT AVBL
STEAMBOAT SPGS MOCLDY    71  44  37 NW3       30.15R
WALDEN         MOCLDY    64  36  34 W8        30.23R
$$

COZ006>008-011-200200-
...WEST CENTRAL VALLEYS...

CITY           SKY/WX    TMP DP  RH WIND       PRES   REMARKS
GRAND JUNCTION PTCLDY    82  45  27 W5        29.96S
MONTROSE       PTCLDY    80  46  30 NW5       30.06R
EAGLE          PTCLDY    79  41  25 NW5       30.12R
RIFLE          PTCLDY    79  44  28 W6        30.01S
DELTA          PTCLDY    87  36  16 NW12      29.99R
NUCLA          PTCLDY    79  41  25 W3        30.09S
$$

COZ017>023-064>068-200200-
...SOUTHWEST COLORADO...

CITY           SKY/WX    TMP DP  RH WIND       PRES   REMARKS
DURANGO        CLEAR     79  42  26 W14       30.07S
CORTEZ         CLEAR     79  47  32 NW5       30.05R
PAGOSA SPRINGS CLOUDY    71  40  32 NW12      30.17R
TELLURIDE      NOT AVBL
WOLF CREEK PAS CLOUDY    50  34  53 SE5       30.50S
$$

COZ009-010-012-014-032>034-037-058>063-200200-
...CENTRAL COLORADO...

CITY           SKY/WX    TMP DP  RH WIND       PRES   REMARKS
ASPEN          PTCLDY    72  39  30 NW9       30.20R
BUENA VISTA    MOCLDY    69  33  26 SE10G17   30.19S
COPPER MTN     MOCLDY    59  30  33 W18       30.53S
BERTHOUD PASS  FAIR      45  45 100 NW15G22   30.58R
COTTONWOOD PAS MOCLDY    66  28  24 W9        30.35R
GUNNISON       CLEAR     73  37  27 CALM      30.19R
KREMMLING      MOCLDY    72  32  23 NW12      30.18R
LEADVILLE      PTCLDY    62  32  32 NW8       30.35R
MONARCH PASS   PTCLDY    54  32  43 NE8       30.61S
SALIDA         MOCLDY    72  36  27 E7        30.24F
SUNLIGHT       PTCLDY    59  37  44 CALM      30.46S
WILKERSON PASS NOT AVBL
$$

COZ069>075-200200-
...SAN LUIS VALLEY/SANGRE DE CRISTO MOUNTAINS...

CITY           SKY/WX    TMP DP  RH WIND       PRES   REMARKS
ALAMOSA        CLEAR     70  29  21 SW6       30.12R
LA VETA PASS   PTCLDY    59  30  33 NE12G17   30.36S
SAGUACHE       NOT AVBL
$$

COZ035-036-038>040-200200-
...NORTHERN COLORADO FRONT RANGE...

CITY           SKY/WX    TMP DP  RH WIND       PRES   REMARKS
DENVER INTL AP MOCLDY    77  44  30 SE7       29.98R
DMNS CITY PARK   N/A     77  44  30 E2        29.98R
AURORA         PTCLDY    74  44  34 SE8       30.02R
FRONT RANGE AP PTCLDY    81  46  30 E5        30.00
ERIE MUNI ARPT PTCLDY    76  44  31 NW5       29.96R
BOULDER MUN AP PTCLDY    75  48  38 W3        29.98R
CENTENNIAL     PTCLDY    78  41  26 SE7       30.02R
BROOMFIELD     MOCLDY    82  39  21 CALM      30.00S
FORT COLLINS   PTCLDY    79  52  38 N3        29.96R
LONGMONT       PTCLDY    77  50  38 NW3       29.98R
$$

COZ041-046-047-076>085-087-088-200200-
...PIKES PEAK/PALMER DIVIDE AND SOUTHERN FOOTHILLS...

CITY           SKY/WX    TMP DP  RH WIND       PRES   REMARKS
COLO. SPRINGS  PTCLDY    76  41  28 E5        30.05R
A. F. ACADEMY  PTCLDY    75  37  24 SW1       30.08R
ELLICOTT       NOT AVBL
FALCON         PTCLDY    69  37  30 CALM      30.11S
FORT CARSON    PTCLDY    75  44  32 S6        30.02R
LIMON          CLEAR     73  38  27 SE12      29.98R
MONUMENT HILL  PTCLDY    68  37  32 E3        30.12R
TRINIDAD       CLEAR     77  36  22 S7        30.00S
$$

COZ042>045-048>051-090-091-200200-
...NORTHEAST COLORADO...

CITY           SKY/WX    TMP DP  RH WIND       PRES   REMARKS
GREELEY ARPT   PTCLDY    79  45  29 NE12      29.96R
AKRON          PTCLDY    75  49  39 N14G21    29.94R
BURLINGTON     CLEAR     80  55  42 S12       29.91R
WRAY           CLEAR     82  49  32 SE3       29.86S
STERLING       PTCLDY    77  59  53 CALM      29.90F
HOLYOKE        CLEAR     79  59  50 S8        29.87R
FORT MORGAN    PTCLDY    74  48  39 NE13      29.95R
$$

COZ086-089-092>099-200200-
...SOUTHEAST COLORADO...

CITY           SKY/WX    TMP DP  RH WIND       PRES   REMARKS
PUEBLO         CLEAR     83  40  21 SE8       29.92R
LA JUNTA       CLEAR     83  40  21 E6        29.88S
LAMAR          CLEAR     81  57  43 S17G24    29.86R
SPRINGFIELD      N/A     73  60  63 S21       29.97R
$$


USA.gov is the U.S. government's official web portal to all federal, state and local government web resources and services.